Printer-friendly version
Follow the MPC on Twitter Follow the MPC on Facebook The MPC blog
Minor Planet Center

MPEC 2010-H08 : 2010 GQ75

The following Minor Planet Electronic Circular may be linked-to from your own Web pages, but must not otherwise be redistributed electronically.

A form allowing access to any MPEC is at the bottom of this page.


Read MPEC 2010-H07 Read MPEC 2010-H09


M.P.E.C. 2010-H08                                Issued 2010 Apr. 17, 16:13 UT

     The Minor Planet Electronic Circulars contain information on unusual
         minor planets and routine data on comets.  They are published
   on behalf of Commission 20 of the International Astronomical Union by the
          Minor Planet Center, Smithsonian Astrophysical Observatory,
                          Cambridge, MA 02138, U.S.A.

             Prepared using the Tamkin Foundation Computer Network

                              MPC@CFA.HARVARD.EDU
       URL http://www.minorplanetcenter.org/iau/mpc.html  ISSN 1523-6714

                                   2010 GQ75

Observations:
     K10G75Q* S2010 04 12.68095 18 30 34.96 +56 45 29.2          22   R EH008C51
     K10G75Q  s2010 04 12.68095 1 + 1889.8849 - 3367.4801 + 5716.8234   EH008C51
     K10G75Q  S2010 04 12.68108 18 30 34.93 +56 45 29.9                 EH008C51
     K10G75Q  s2010 04 12.68108 1 + 1905.5799 - 3435.6402 + 5670.9951   EH008C51
     K10G75Q  S2010 04 12.81326 18 29 31.81 +56 47 00.9                 EH008C51
     K10G75Q  s2010 04 12.81326 1 + 1896.3689 - 3358.1461 + 5719.9315   EH008C51
     K10G75Q  S2010 04 12.94556 18 28 28.76 +56 48 28.2                 EH008C51
     K10G75Q  s2010 04 12.94556 1 + 1902.3387 - 3347.3943 + 5724.5137   EH008C51
     K10G75Q  S2010 04 12.94569 18 28 28.68 +56 48 28.7                 EH008C51
     K10G75Q  s2010 04 12.94569 1 + 1918.3968 - 3415.5907 + 5678.8094   EH008C51
     K10G75Q  S2010 04 13.07787 18 27 25.56 +56 49 55.5                 EH008C51
     K10G75Q  s2010 04 13.07787 1 + 1908.2560 - 3336.0562 + 5729.2511   EH008C51
     K10G75Q  S2010 04 13.07799 18 27 25.44 +56 49 54.3                 EH008C51
     K10G75Q  s2010 04 13.07799 1 + 1924.4972 - 3404.2410 + 5683.6532   EH008C51
     K10G75Q  S2010 04 13.21017 18 26 22.35 +56 51 18.5                 EH008C51
     K10G75Q  s2010 04 13.21017 1 + 1914.4036 - 3324.9413 + 5733.7248   EH008C51
     K10G75Q  S2010 04 13.21030 18 26 22.13 +56 51 18.5                 EH008C51
     K10G75Q  s2010 04 13.21030 1 + 1930.8244 - 3393.1382 + 5688.2102   EH008C51
     K10G75Q {C2010 04 17.33174 17 53 12.61 +57 15 04.6          21.3 R EH008675
     K10G75Q {C2010 04 17.33387 17 53 11.78 +57 15 04.9          20.9 R EH008675
     K10G75Q {C2010 04 17.33601 17 53 10.79 +57 15 04.2          21.0 R EH008675
     K10G75Q {C2010 04 17.33815 17 53 09.61 +57 15 04.2          20.9 R EH008675
     K10G75Q {C2010 04 17.34028 17 53 08.62 +57 15 05.3          20.9 R EH008675

Observer details:
675 Palomar Mountain.  Observers J. R. Masiero, J. W. Dailey.  Measurers
    J. M. Bauer.  5.1-m f/3.3 reflector + LFC CCD.
C51 WISE.  Measurers A. Mainzer, E. Wright, J. Bauer, T. Grav, J. Dailey, J.
    Masiero, R. Cutri, R. McMillan, R. Walker.
    (http://wise.ssl.berkeley.edu/mission_sci.html)

Orbital elements:
2010 GQ75                                                Earth MOID = 0.6555 AU
Epoch 2010 Apr. 14.0 TT = JDT 2455300.5                 MPC
M   6.02999              (2000.0)            P               Q
n   0.10244054     Peri.    1.19210     +0.27835136     -0.60307563
a   4.5236411      Node    73.09187     +0.87463046     -0.16247874
e   0.9267724      Incl.   51.38135     +0.39691571     +0.78096123
P   9.62           H   19.2           G   0.15
From 14 observations 2010 Apr. 12-17.  E-assumed.

Ephemeris:
2010 GQ75                a,e,i = 4.52, 0.93, 51                  q = 0.3313
Date    TT    R. A. (2000) Decl.     Delta      r     Elong.  Phase     V
2010 04 14    18 20.07   +56 58.8    0.863    1.338    91.3    48.5    21.3
2010 04 24    17 00.84   +56 32.2    0.925    1.499   101.8    41.1    21.5
2010 05 04    15 55.14   +52 51.0    1.013    1.652   109.6    35.1    21.8
2010 05 14    15 09.71   +47 22.4    1.131    1.798   114.1    30.9    22.1
2010 05 24    14 41.12   +41 24.6    1.278    1.939   115.1    28.2    22.4
2010 06 03    14 24.12   +35 41.7    1.450    2.074   113.4    26.7    22.8
2010 06 13    14 14.76   +30 30.7    1.644    2.204   109.7    25.7    23.2
2010 06 23    14 10.57   +25 54.8    1.854    2.330   104.7    25.0    23.5

Carl W. Hergenrother         (C) Copyright 2010 MPC           M.P.E.C. 2010-H08

Read MPEC 2010-H07 Read MPEC 2010-H09


MPEC number:

Enter an MPEC number in one of the following forms:

  • 1997-B01 (the full form)
  • J97B01 (the packed version of the full form)
  • B01 (the abbreviated form)

Valid HTML 4.01!